Location: Dragsdorf
(50.9863°N, 12.1918°E)
Time: 17:58:51
(UTC+00:00)

Daily predictions for brighter satellites

Satellite Brightness Start Highest point End
(mag) Time Altitude Azimuth Time Altitude Azimuth Time Altitude Azimuth
Cosmos 1455 2.6 20:07:23 10° NNW 20:11:13 66° W 20:15:02 10° S
Cosmos 1825 Rocket 3.7 20:12:46 10° S 20:17:09 63° E 20:21:35 10° NNE
ATLAS CENTAUR R/B 1.6 20:14:41 10° NW 20:18:21 53° NE 20:21:56 10° ESE
Cosmos 1703 3.2 20:17:50 10° S 20:21:43 76° E 20:25:37 10° NNE
COSMOS 2428 3.5 20:17:57 10° SSE 20:22:50 31° ESE 20:27:46 10° NE
Cosmos 1844 3.9 20:17:35 10° NNW 20:23:23 76° WSW 20:29:05 10° SSE
Cosmos 2322 3.9 20:21:05 10° S 20:26:36 52° ESE 20:32:09 10° NE
CZ-4B DEB 4.4 20:28:33 10° SSE 20:31:54 89° NE 20:35:17 10° NNW
Cosmos 783 Rocket 4.5 20:27:30 10° SSW 20:32:44 79° ESE 20:37:59 10° NNE
Cosmos 1709 Rocket 4.1 20:27:04 10° S 20:33:20 76° E 20:39:44 10° NNE
NOSS 3-3 (A) 4.4 20:29:46 10° S 20:35:07 38° ESE 20:41:05 10° NE
NOSS 3-3 (C) 4.5 20:29:53 10° S 20:35:14 37° ESE 20:41:12 10° NE
Atlas Centaur 2 4.3 20:34:13 10° SSW 20:36:15 11° S 20:38:22 10° SSE
Terra 2.1 20:31:42 10° SSE 20:36:21 57° ENE 20:41:02 10° N
Cosmos 2237 Rocket 3.8 20:33:16 10° SE 20:36:48 17° E 20:40:21 10° ENE
CARTOSAT-1 3.6 20:33:11 10° SSE 20:37:29 85° ENE 20:41:50 10° NNW
Cosmos 2333 4.3 20:32:50 10° SSW 20:38:22 60° ESE 20:44:00 10° NE
Cosmos 2219 Rocket 2.6 20:33:33 10° S 20:38:48 44° ESE 20:44:06 10° NE
Cosmos 2360 Rocket 2.4 20:35:01 10° SW 20:40:41 78° WNW 20:46:24 10° NNE
IGS 5A 4.3 20:36:44 10° S 20:40:46 48° W 20:44:49 10° NNW
Cosmos 1538 Rocket 4.5 20:36:36 10° S 20:41:39 44° ESE 20:46:42 10° NE
Cosmos 2333 Rocket 2.4 20:43:01 10° S 20:48:33 55° ESE 20:54:09 10° NE
Cosmos 1315 Rocket 2.9 20:46:27 10° N 20:50:33 77° ENE 20:54:13 13° SSE
ATLAS 2AS CENTAUR R/B 3.4 20:43:32 10° NW 20:51:11 57° NE 20:58:13 10° ESE
Resurs 01 Rocket 4.0 20:49:47 10° SW 20:52:55 19° W 20:56:04 10° NW
Cosmos-2242 4.1 20:49:49 10° NNW 20:53:55 42° W 20:58:01 10° SSW
Cosmos 1818 3.8 20:50:36 10° SW 20:56:02 75° NW 21:01:32 10° NE
Cosmos 773 Rocket 4.0 20:53:16 10° SSW 20:58:35 85° ESE 21:03:55 10° NNE
Cosmos 2221 2.8 20:54:41 10° N 20:59:01 55° ENE 21:02:29 15° SSE
SL-16 R/B 4.2 20:54:54 10° WSW 21:00:00 33° NW 21:05:08 10° NNE
ERS-1 Rocket 3.4 20:57:02 10° S 21:02:00 60° WSW 21:07:01 10° NNW
GEOS 3 Rocket 3.7 20:56:53 10° NE 21:02:19 90° NNW 21:07:44 10° SW
USA 215 3.3 20:59:11 10° ENE 21:05:39 57° SE 21:12:04 10° SW
Cosmos 2278 Rocket 2.3 21:02:42 10° NNW 21:08:24 73° ENE 21:13:09 15° SE
Cosmos 1892 3.7 21:07:01 17° SE 21:09:18 30° E 21:12:39 10° NNE
ATLAS 5 CENTAUR R/B 2.1 21:08:29 10° WSW 21:12:41 64° NW 21:17:33 10° NE
Cosmos 1844 Rocket 4.2 21:08:07 10° NW 21:12:48 28° WSW 21:17:27 10° SSW
Meteor 1-11 4.5 21:07:29 10° SSW 21:13:07 74° WNW 21:18:50 10° N
Gblst 52 Del rocket 4.5 21:09:25 10° WNW 21:15:01 59° SSW 21:20:33 13° SE
Cosmos 1943 Rocket 4.2 21:11:39 10° NNW 21:15:58 22° NE 21:20:15 10° E
SPOT 5 3.6 21:13:56 10° S 21:18:46 49° W 21:23:26 10° NNW
SL-16 R/B 4.0 21:18:56 11° ESE 21:21:13 14° E 21:24:06 10° ENE
Lacrosse 5 rocket 3.0 21:17:22 10° WNW 21:21:14 34° N 21:24:53 10° ENE
Cosmos 2056 Rocket 4.4 21:18:00 10° NNW 21:23:11 44° ENE 21:27:39 14° SE
Nadezhda 3 Rocket 4.3 21:17:55 10° N 21:24:14 61° ENE 21:29:11 17° SSE
Cosmos 2058 3.3 21:25:00 19° SSE 21:27:44 49° E 21:31:45 10° NNE
BREEZE M DEB (TANK) 4.1 21:27:12 10° SW 21:27:39 11° SW 21:27:39 11° SW
Cosmos 2154 Rocket 4.3 21:23:03 16° SSE 21:27:51 52° E 21:33:51 10° NNE
Cosmos 1408 3.6 21:29:05 21° SE 21:30:46 31° E 21:33:58 10° NNE
Meteor 2-17 Rocket 4.5 21:27:26 14° S 21:32:36 70° E 21:38:37 10° NNE
In-Cosmos 22 Rocket 4.1 21:29:55 16° S 21:34:08 65° E 21:39:26 10° NNE
TSX-5 3.7 21:31:43 10° NW 21:35:08 71° WSW 21:37:36 22° SSE
Cosmos 2074 Rocket 4.0 21:29:15 12° S 21:35:08 86° E 21:41:24 10° N
Cosmos 1076 Rocket 3.7 21:36:08 20° SSE 21:38:56 58° E 21:43:09 10° NNE
Cosmos 1680 Rocket 3.9 21:35:41 18° S 21:39:26 47° ESE 21:44:32 10° NE
USA 267 3.3 21:34:04 15° SE 21:39:43 68° SW 21:46:16 10° WNW
CZ-4C R/B 4.2 21:38:27 10° NW 21:44:27 36° NNE 21:51:28 10° E
Cosmos 1842 Rocket 4.4 21:41:34 10° NNW 21:45:44 45° W 21:49:02 15° SSW
JB-3 4.3 21:43:07 10° N 21:46:59 76° WNW 21:49:57 16° SSW
COSMOS 2455 4.1 21:42:45 10° NNW 21:48:22 38° NE 21:53:58 10° ESE
Cosmos 2151 3.9 21:47:18 21° SE 21:49:27 34° E 21:53:20 10° NNE
MTI 4.3 21:47:56 10° N 21:50:58 54° WNW 21:53:10 17° SSW
Cosmos 923 Rocket 4.0 21:52:20 14° SSW 21:56:54 81° ESE 22:02:14 10° NNE
ATLAS CENTAUR R/B 2.9 21:54:12 10° WNW 21:56:54 19° WSW 21:58:26 15° SSW
Cosmos 2327 Rocket 4.5 21:52:14 16° S 21:57:19 87° E 22:03:29 10° N
Cosmos 1825 2.6 21:58:08 26° SSE 21:59:50 46° E 22:03:30 10° NNE
Cosmos 2369 Rocket 3.9 21:55:49 10° NNW 22:00:35 27° NE 22:05:20 10° E
Cosmos 1151 Rocket 4.1 21:56:40 10° N 22:00:41 35° ENE 22:03:13 19° SE
ALOS 2 3.2 21:58:03 20° SE 22:00:46 47° ENE 22:05:00 10° N
Cosmos 1980 3.7 21:56:55 14° SSW 22:01:46 71° ESE 22:07:25 10° NNE
Cosmos 967 Rocket 4.5 21:57:38 10° SSW 22:04:07 82° SE 22:10:37 10° NE
Cosmos 44 4.2 22:05:15 22° SE 22:06:13 24° ESE 22:09:46 10° ENE
COSMOS 2428 3.4 22:01:17 10° SW 22:06:51 55° NW 22:12:27 10° NNE
Cosmos 371 Rocket 4.1 22:03:36 10° NNW 22:08:18 46° ENE 22:11:47 17° SE
GP-B 3.8 22:04:53 10° NNE 22:09:07 40° E 22:11:23 23° SE
Cosmos 1295 Rocket 4.4 22:06:31 19° S 22:11:01 82° E 22:17:10 10° NNE
Cosmos 1624 Rocket 4.0 22:08:30 10° NNW 22:13:46 83° WSW 22:16:57 24° SSE
NOSS 0 Rocket 3.9 22:08:03 10° SSW 22:14:12 86° WNW 22:20:26 10° NNE
NOSS 3-4 (A) 3.9 22:07:32 10° NW 22:14:24 66° SW 22:19:46 21° SSE
Terra 3.7 22:10:47 10° SW 22:14:27 22° W 22:18:08 10° NW
NOSS 3-4 (C) 3.9 22:07:40 10° NW 22:14:31 67° SW 22:19:55 20° SSE
SL-4 R/B 2.4 22:19:54 20° ENE 22:20:01 20° ENE 22:21:40 10° NNE
Cosmos 2237 Rocket 2.2 22:14:58 13° SSW 22:20:03 88° ESE 22:25:49 10° NNE
Genesis I 3.2 22:18:36 25° SSW 22:20:40 60° SE 22:24:31 10° NE
CREW DRAGON DEMO-1 DEB 4.3 22:22:53 23° ESE 22:22:53 23° ESE 22:24:30 10° E
Cosmos 2344 3.6 22:16:02 12° SSW 22:22:46 61° SE 22:30:45 10° NE
Cosmos 2219 Rocket 3.5 22:17:34 10° WSW 22:22:49 40° NW 22:28:08 10° NNE
Elektron 1 4.5 22:21:21 16° SW 22:24:00 79° SE 22:30:06 10° NE
Cosmos 1346 Rocket 4.4 22:28:04 18° ESE 22:29:27 22° E 22:32:30 10° NE
Thor Agena Rocket 3.6 22:24:27 10° NNE 22:29:36 76° WNW 22:33:18 19° SSW
Cosmos 2333 Rocket 3.8 22:27:56 10° WSW 22:33:07 35° NW 22:38:21 10° NNE
RESURS DK-1 4.3 22:35:31 10° NNW 22:39:00 25° NE 22:42:28 10° E
Cosmos 1515 Rocket 4.1 22:36:41 10° N 22:40:56 50° ENE 22:43:15 24° SE
BREEZE-M DEB (TANK) 2.1 22:38:25 10° W 22:41:22 35° SW 22:41:22 35° SW
ATLAS 2AS CENTAUR R/B 3.2 22:34:57 10° NW 22:42:12 51° WSW 22:46:25 23° S
EO 1 Del DPAF 3.8 22:39:04 10° N 22:42:44 51° WNW 22:44:59 21° SW
Cosmos 1766 Rocket 3.5 22:44:24 29° S 22:46:36 84° E 22:51:03 10° NNE
Cosmos 1328 Rocket 3.4 22:44:02 10° N 22:48:23 88° WSW 22:50:25 31° S
Aureole 2 Rocket 2.5 22:45:54 10° NW 22:48:36 43° WSW 22:48:59 40° SW
USA 215 3.6 22:42:17 10° ENE 22:48:49 70° NNW 22:55:20 10° WSW
Gbstr 26 Del rocket 4.1 22:49:28 23° SE 22:49:28 23° SE 22:52:15 10° E
Okean 3 Rocket 3.6 22:47:02 27° SSW 22:49:26 81° W 22:53:54 10° N
Cosmos 1606 2.9 22:46:52 10° NNW 22:50:43 63° W 22:52:19 32° SSW
Cosmos 2278 Rocket 3.8 22:47:39 10° NW 22:51:56 22° WSW 22:54:59 15° SW
Cosmos 2297 3.8 22:48:14 10° NW 22:53:56 65° WSW 22:57:11 26° S
Cosmos 304 Rocket 4.2 22:50:02 10° NNW 22:54:49 57° ENE 22:58:04 20° SE
Cosmos 2218 Rocket 4.0 22:50:54 24° S 22:54:57 79° E 23:01:17 10° NNE
Cosmos 2228 Rocket 4.0 22:52:12 10° N 22:56:35 42° ENE 22:59:19 20° SE
Cosmos 1420 Rocket 4.1 22:52:28 10° NNW 22:57:43 68° WSW 23:00:36 27° S
ATLAS 5 CENTAUR R/B 4.3 22:54:33 10° WNW 22:58:17 24° NNW 23:02:28 10° NE
Cosmos 2366 rocket 4.0 22:56:35 24° S 23:00:38 82° E 23:07:01 10° NNE
Cosmos 1943 Rocket 2.3 22:54:57 10° NNW 23:00:41 78° ENE 23:04:40 20° SE
Lacrosse 5 rocket 1.9 22:56:58 10° WNW 23:00:58 55° NNE 23:04:43 10° ESE
Cosmos 1633 3.2 23:01:11 31° SE 23:02:21 42° E 23:05:49 10° NNE
Landsat 4 4.5 22:59:06 10° NNE 23:02:41 40° E 23:03:58 29° SE
SL-16 R/B 2.2 23:00:47 23° SSW 23:04:22 77° ESE 23:10:05 10° NNE
Cosmos 1959 Rocket 4.5 23:06:20 24° SSW 23:10:16 85° W 23:16:31 10° N
YAOGAN 11 4.0 23:09:09 30° SSE 23:11:19 90° SSE 23:15:47 10° NNW
Cosmos 1743 Rocket 3.9 23:12:36 29° SSE 23:14:32 52° E 23:18:47 10° NNE
Cosmos 332 Rocket 3.8 23:14:20 10° NNW 23:19:06 66° WSW 23:21:28 29° S
Cosmos 1048 Rocket 4.4 23:19:32 27° S 23:22:12 51° ESE 23:27:18 10° NNE
USA 267 4.4 23:21:24 20° SSW 23:23:33 23° SW 23:28:37 10° WNW
Meteor 2-3 Rocket 3.7 23:21:02 25° SSW 23:24:28 83° WNW 23:30:13 10° NNE
Helios 1A 3.3 23:24:53 31° SSW 23:26:37 52° W 23:30:42 10° NNW
Cosmos 405 2.9 23:24:23 10° NNW 23:27:56 77° W 23:29:08 39° S
Cosmos 1452 Rocket 3.8 23:27:21 10° NNW 23:32:28 53° WSW 23:35:07 27° S
CZ-4C R/B 3.0 23:26:58 10° NW 23:33:57 81° NE 23:42:08 10° SE
Meteor 2-6 Rocket 4.2 23:28:53 10° N 23:34:25 76° ENE 23:37:54 23° SSE
Cosmos 389 Rocket 4.4 23:31:41 10° NNE 23:34:35 23° ENE 23:37:05 12° ESE
PSLV R/B 3.7 23:30:27 10° NNE 23:34:38 59° ESE 23:36:34 30° S
COSMOS 2455 2.9 23:28:42 10° NW 23:34:39 62° WSW 23:38:24 23° SSE
Cosmos 1825 4.5 23:33:00 10° WSW 23:35:37 18° WNW 23:38:16 10° NNW
Cosmos 1340 3.4 23:34:23 26° SW 23:36:08 46° WNW 23:39:48 10° N
Cosmos 1110 Rocket 4.1 23:31:11 10° NNW 23:36:30 79° ENE 23:40:16 20° SSE
ALOS 2 4.2 23:35:27 17° SW 23:37:20 23° W 23:40:50 10° NW
Cosmos 1151 Rocket 4.4 23:34:26 10° NNW 23:38:08 28° W 23:40:03 20° SW
Cosmos 1408 Rocket 4.1 23:35:56 24° SW 23:38:16 51° WNW 23:42:36 10° N
SL-16 R/B 3.8 23:33:05 10° SE 23:38:42 37° ENE 23:44:22 10° N
Cosmos 1603 4.3 23:36:25 24° SSE 23:39:25 45° ESE 23:44:50 10° NE
Cosmos 1727 Rocket 4.3 23:38:12 10° NNW 23:44:15 55° W 23:48:04 23° SSW
APEX 4.0 23:42:29 10° WNW 23:44:22 22° W 23:44:22 22° W
Resurs 1-4 Rocket 4.0 23:40:57 10° NE 23:44:53 20° E 23:48:44 10° SE
Cosmos 2369 Rocket 2.1 23:39:34 10° NNW 23:45:10 73° WSW 23:48:49 22° SSE
Cosmos 1500 Rocket 3.5 23:44:49 29° SSW 23:47:01 80° W 23:51:26 10° N
Cosmos 44 3.6 23:43:38 15° WSW 23:47:05 57° NW 23:51:32 10° NE
Cosmos 371 Rocket 4.5 23:44:23 10° NW 23:48:32 28° WSW 23:50:25 22° SW
SeaSat 1 4.0 23:44:56 10° NE 23:48:54 24° ESE 23:51:20 17° SE
ISS -1.6 23:51:00 14° ESE 23:51:00 14° ESE 23:52:14 10° ESE
Helios 1B rocket 2.4 23:49:17 10° NNE 23:53:26 76° ESE 23:55:23 30° S
